TimeCST,TemperatureF,Dew PointF,Humidity,Sea Level PressureIn,VisibilityMPH,Wind Direction,Wind SpeedMPH,Gust SpeedMPH,PrecipitationIn,Events,Conditions,WindDirDegrees,DateUTC
12:15 AM,47.5,16.3,29,30.08,10.0,SW,11.5,18.4,N/A,,Clear,220,2012-11-21 06:15:00
12:35 AM,48.6,17.2,29,30.08,10.0,SW,11.5,-,N/A,,Clear,220,2012-11-21 06:35:00
12:55 AM,47.7,18.0,31,30.07,10.0,SSW,12.7,-,N/A,,Clear,210,2012-11-21 06:55:00
1:15 AM,47.5,18.5,32,30.06,10.0,SSW,11.5,-,N/A,,Clear,210,2012-11-21 07:15:00
1:35 AM,44.2,18.9,36,30.06,10.0,SW,10.4,-,N/A,,Clear,220,2012-11-21 07:35:00
1:55 AM,41.4,19.6,42,30.06,10.0,WSW,4.6,-,N/A,,Clear,240,2012-11-21 07:55:00
2:15 AM,37.0,19.8,50,30.05,10.0,South,5.8,-,N/A,,Clear,170,2012-11-21 08:15:00
2:35 AM,39.0,20.3,47,30.05,10.0,SSW,6.9,-,N/A,,Clear,210,2012-11-21 08:35:00
2:55 AM,36.1,19.9,52,30.04,10.0,South,6.9,-,N/A,,Clear,190,2012-11-21 08:55:00
3:15 AM,34.3,20.1,56,30.03,10.0,SSW,9.2,-,N/A,,Clear,210,2012-11-21 09:15:00
3:35 AM,36.7,20.3,52,30.03,10.0,SSW,9.2,-,N/A,,Clear,200,2012-11-21 09:35:00
3:55 AM,35.2,20.3,55,30.03,10.0,SSW,10.4,-,N/A,,Clear,210,2012-11-21 09:55:00
4:15 AM,34.2,19.8,56,30.02,10.0,SSW,6.9,-,N/A,,Clear,210,2012-11-21 10:15:00
4:35 AM,33.8,19.4,56,30.01,10.0,SW,8.1,-,N/A,,Clear,220,2012-11-21 10:35:00
4:55 AM,32.0,19.2,59,30.02,10.0,Calm,Calm,-,N/A,,Clear,0,2012-11-21 10:55:00
5:15 AM,29.1,18.7,65,30.02,10.0,West,5.8,-,N/A,,Clear,260,2012-11-21 11:15:00
5:55 AM,29.3,17.2,61,30.00,10.0,SW,5.8,-,N/A,,Clear,230,2012-11-21 11:55:00
6:15 AM,28.8,17.1,62,30.00,10.0,WSW,8.1,-,N/A,,Clear,240,2012-11-21 12:15:00
6:35 AM,30.2,17.1,58,30.01,10.0,WSW,5.8,-,N/A,,Clear,240,2012-11-21 12:35:00
6:55 AM,28.6,16.5,61,30.00,10.0,WSW,8.1,-,N/A,,Clear,240,2012-11-21 12:55:00
7:15 AM,27.5,16.3,63,30.00,10.0,WSW,4.6,-,N/A,,Clear,240,2012-11-21 13:15:00
7:35 AM,29.8,16.5,58,30.00,10.0,South,8.1,-,N/A,,Clear,190,2012-11-21 13:35:00
7:55 AM,32.7,16.0,50,30.00,10.0,SW,6.9,-,N/A,,Clear,230,2012-11-21 13:55:00
8:15 AM,34.0,16.0,48,29.99,10.0,SW,8.1,-,N/A,,Clear,220,2012-11-21 14:15:00
8:35 AM,35.4,16.9,47,29.99,10.0,SSW,3.5,-,N/A,,Clear,210,2012-11-21 14:35:00
8:55 AM,37.8,17.4,44,30.00,10.0,SW,8.1,-,N/A,,Clear,230,2012-11-21 14:55:00
9:15 AM,40.5,16.5,38,29.99,10.0,WSW,10.4,-,N/A,,Clear,240,2012-11-21 15:15:00
9:35 AM,41.4,16.2,36,29.99,10.0,SW,4.6,-,N/A,,Clear,230,2012-11-21 15:35:00
9:55 AM,44.8,16.0,31,29.99,10.0,SW,4.6,-,N/A,,Clear,230,2012-11-21 15:55:00
10:15 AM,48.0,16.9,29,29.98,10.0,West,4.6,-,N/A,,Clear,280,2012-11-21 16:15:00
10:55 AM,52.7,18.9,26,29.97,10.0,Calm,Calm,-,N/A,,Clear,0,2012-11-21 16:55:00
11:15 AM,55.4,19.4,25,29.96,10.0,Calm,Calm,-,N/A,,Clear,0,2012-11-21 17:15:00
11:35 AM,58.1,19.4,22,29.96,10.0,South,3.5,-,N/A,,Clear,170,2012-11-21 17:35:00
11:55 AM,59.7,19.0,21,29.95,10.0,SSE,3.5,-,N/A,,Clear,160,2012-11-21 17:55:00
12:15 PM,62.1,19.2,19,29.93,10.0,South,5.8,-,N/A,,Clear,180,2012-11-21 18:15:00
12:35 PM,63.7,16.2,16,29.92,10.0,SW,3.5,-,N/A,,Clear,230,2012-11-21 18:35:00
12:55 PM,64.6,16.0,15,29.91,10.0,SSE,4.6,-,N/A,,Clear,160,2012-11-21 18:55:00
1:15 PM,67.3,14.7,13,29.90,10.0,West,5.8,-,N/A,,Clear,260,2012-11-21 19:15:00
1:35 PM,68.2,13.8,12,29.89,10.0,West,8.1,-,N/A,,Clear,260,2012-11-21 19:35:00
1:55 PM,69.3,14.9,12,29.88,10.0,WSW,4.6,-,N/A,,Clear,250,2012-11-21 19:55:00
2:15 PM,70.3,14.0,12,29.87,10.0,South,5.8,-,N/A,,Clear,190,2012-11-21 20:15:00
2:35 PM,71.6,12.4,10,29.86,10.0,SW,4.6,-,N/A,,Clear,220,2012-11-21 20:35:00
2:55 PM,71.8,12.0,10,29.85,10.0,SW,3.5,-,N/A,,Clear,220,2012-11-21 20:55:00
3:15 PM,72.7,12.0,10,29.84,10.0,South,4.6,-,N/A,,Clear,170,2012-11-21 21:15:00
3:35 PM,73.4,11.3,9,29.84,10.0,South,6.9,-,N/A,,Clear,190,2012-11-21 21:35:00
3:55 PM,73.2,11.3,9,29.83,10.0,SSW,6.9,-,N/A,,Clear,200,2012-11-21 21:55:00
4:15 PM,72.9,11.5,9,29.83,10.0,South,6.9,-,N/A,,Clear,190,2012-11-21 22:15:00
4:35 PM,71.8,11.7,10,29.83,10.0,South,5.8,-,N/A,,Clear,190,2012-11-21 22:35:00
4:55 PM,68.2,13.6,12,29.83,10.0,South,5.8,-,N/A,,Clear,180,2012-11-21 22:55:00
5:15 PM,63.5,16.2,16,29.82,7.0,SSE,8.1,-,N/A,,Clear,160,2012-11-21 23:15:00
5:35 PM,60.8,18.3,19,29.82,10.0,SSE,10.4,-,N/A,,Clear,160,2012-11-21 23:35:00
5:55 PM,59.0,16.9,19,29.82,10.0,South,10.4,-,N/A,,Clear,170,2012-11-21 23:55:00
6:15 PM,55.9,16.7,21,29.82,10.0,South,9.2,-,N/A,,Clear,170,2012-11-22 00:15:00
6:35 PM,53.2,17.4,24,29.83,10.0,South,8.1,-,N/A,,Clear,190,2012-11-22 00:35:00
6:55 PM,52.9,16.0,23,29.83,10.0,South,9.2,-,N/A,,Clear,190,2012-11-22 00:55:00
7:15 PM,49.8,15.8,26,29.83,10.0,SSW,5.8,-,N/A,,Clear,210,2012-11-22 01:15:00
7:35 PM,50.5,14.9,24,29.83,10.0,WSW,5.8,-,N/A,,Clear,250,2012-11-22 01:35:00
7:55 PM,50.2,14.9,25,29.83,10.0,SW,3.5,-,N/A,,Clear,220,2012-11-22 01:55:00
8:15 PM,47.5,14.5,27,29.83,10.0,WSW,6.9,-,N/A,,Clear,240,2012-11-22 02:15:00
8:35 PM,48.0,14.9,27,29.82,10.0,SW,6.9,-,N/A,,Clear,230,2012-11-22 02:35:00
8:55 PM,45.0,14.9,30,29.82,10.0,SW,4.6,-,N/A,,Clear,230,2012-11-22 02:55:00
9:15 PM,45.1,15.3,30,29.82,10.0,SW,9.2,-,N/A,,Clear,220,2012-11-22 03:15:00
9:35 PM,45.5,14.9,29,29.82,10.0,SSW,10.4,-,N/A,,Clear,210,2012-11-22 03:35:00
9:55 PM,44.8,14.9,30,29.81,10.0,SW,9.2,-,N/A,,Clear,220,2012-11-22 03:55:00
10:15 PM,42.4,14.5,32,29.81,10.0,SW,6.9,-,N/A,,Clear,230,2012-11-22 04:15:00
10:35 PM,40.8,15.3,35,29.81,10.0,WSW,4.6,-,N/A,,Clear,240,2012-11-22 04:35:00
10:55 PM,41.0,14.9,35,29.81,10.0,WSW,3.5,-,N/A,,Clear,250,2012-11-22 04:55:00
11:15 PM,39.9,14.9,36,29.79,10.0,WSW,6.9,-,N/A,,Clear,240,2012-11-22 05:15:00
11:35 PM,40.3,14.5,35,29.81,10.0,Calm,Calm,-,N/A,,Clear,0,2012-11-22 05:35:00
11:55 PM,38.5,14.7,38,29.80,10.0,SSW,5.8,-,N/A,,Clear,210,2012-11-22 05:55:00